Change the Weather History Date:

Sunday, November 24, 2013

  Actual Average Record
Temperature  
Mean Temperature 19 °F -  
Max Temperature 30 °F 45 °F 66 °F (2001)
Min Temperature 8 °F 25 °F -2 °F (1950)
Degree Days  
Heating Degree Days 46    
Moisture  
Dew Point 7 °F    
Average Humidity 63    
Maximum Humidity 92    
Minimum Humidity 34    
Precipitation  
Precipitation 0.00 in - - ()
Sea Level Pressure  
Sea Level Pressure 30.61 in    
Wind  
Wind Speed 7 mph (SSW)    
Max Wind Speed 16 mph    
Max Gust Speed 17 mph    
Visibility 10 miles    
Events      
Averages and records for this station are not official NWS values.
T = Trace of Precipitation, MM = Missing Value Source: NWS Daily Summary

Daily Weather History Graph

Daily Weather History Graph

Search for Another Location

Airport or City:

Trip Planner

Search our weather history database for the weather conditions in past years. The results will help you decide how hot, cold, wet, or windy it might be!

Date:

Astronomy

Nov. 24, 2013 Rise Set
Actual Time 7:03 AM CST 4:38 PM CST
Civil Twilight 6:33 AM CST 5:08 PM CST
Nautical Twilight 5:59 AM CST 5:42 PM CST
Astronomical Twilight 5:26 AM CST 6:16 PM CST
Moon 11:06 PM CST (11/24) 11:49 AM CST (11/24)
Length of Visible Light 10h 35m
Length of Day
9h 34m
Waning Gibbous, 60% of the Moon is Illuminated
Nov 24
Waning Gibbous
Nov 25
Last Quarter
Dec 2
New
Dec 9
First Quarter
Dec 17
Full

Hourly Weather History & Observations

Time (CST) Temp. Windchill Dew Point Humidity Pressure Visibility Wind Dir Wind Speed Gust Speed Precip Events Conditions
12:15 AM 12.2 °F 1.7 °F 6.8 °F 79% 30.77 in 10.0 mi NW 6.9 mph - N/A   Clear
12:35 AM 10.4 °F -1.5 °F 6.8 °F 85% 30.76 in 10.0 mi NW 8.1 mph - N/A   Clear
12:55 AM 12.2 °F 0.7 °F 6.8 °F 79% 30.76 in 10.0 mi NW 8.1 mph - N/A   Clear
1:15 AM 10.4 °F -1.5 °F 6.8 °F 85% 30.75 in 10.0 mi NW 8.1 mph - N/A   Clear
1:35 AM 10.4 °F -0.4 °F 5.0 °F 79% 30.76 in 10.0 mi NNW 6.9 mph - N/A   Clear
1:55 AM 10.4 °F 0.8 °F 5.0 °F 79% 30.76 in 10.0 mi NNW 5.8 mph - N/A   Clear
2:15 AM 10.4 °F - 5.0 °F 79% 30.76 in 10.0 mi Calm Calm - N/A   Clear
2:35 AM 10.4 °F 4.0 °F 5.0 °F 79% 30.76 in 10.0 mi NW 3.5 mph - N/A   Clear
2:55 AM 10.4 °F - 5.0 °F 79% 30.75 in 10.0 mi Calm Calm - N/A   Clear
3:15 AM 10.4 °F 2.2 °F 6.8 °F 85% 30.75 in 10.0 mi NW 4.6 mph - N/A   Clear
3:35 AM 10.4 °F - 5.0 °F 79% 30.75 in 10.0 mi Calm Calm - N/A   Clear
3:55 AM 10.4 °F - 5.0 °F 79% 30.75 in 10.0 mi Calm Calm - N/A   Clear
4:15 AM 10.4 °F - 5.0 °F 79% 30.74 in 10.0 mi Calm Calm - N/A   Clear
4:35 AM 10.4 °F - 5.0 °F 79% 30.75 in 10.0 mi Calm Calm - N/A   Clear
4:55 AM 8.6 °F 2.0 °F 5.0 °F 85% 30.75 in 10.0 mi South 3.5 mph - N/A   Clear
5:15 AM 8.6 °F 0.1 °F 5.0 °F 85% 30.74 in 10.0 mi SSW 4.6 mph - N/A   Clear
5:35 AM 8.6 °F 0.1 °F 5.0 °F 85% 30.74 in 10.0 mi SSW 4.6 mph - N/A   Clear
5:55 AM 8.6 °F 0.1 °F 5.0 °F 85% 30.75 in 10.0 mi WSW 4.6 mph - N/A   Clear
6:15 AM 8.6 °F - 5.0 °F 85% 30.76 in 10.0 mi Calm Calm - N/A   Clear
6:35 AM 8.6 °F - 5.0 °F 85% 30.75 in 10.0 mi Calm Calm - N/A   Clear
6:55 AM 8.6 °F - 5.0 °F 85% 30.75 in 10.0 mi Calm Calm - N/A   Clear
7:15 AM 8.6 °F 2.0 °F 5.0 °F 85% 30.75 in 10.0 mi South 3.5 mph - N/A   Clear
7:35 AM 8.6 °F 0.1 °F 6.8 °F 92% 30.76 in 10.0 mi SSE 4.6 mph - N/A   Clear
7:55 AM 10.4 °F 2.2 °F 6.8 °F 85% 30.76 in 10.0 mi South 4.6 mph - N/A   Clear
8:15 AM 12.2 °F 6.1 °F 8.6 °F 85% 30.76 in 10.0 mi South 3.5 mph - N/A   Clear
8:35 AM 14.0 °F - 8.6 °F 79% 30.76 in 10.0 mi Calm Calm - N/A   Clear
8:55 AM 14.0 °F - 8.6 °F 79% 30.76 in 10.0 mi Calm Calm - N/A   Clear
9:15 AM 15.8 °F 6.1 °F 8.6 °F 73% 30.75 in - South 6.9 mph - N/A   Clear
9:35 AM 17.6 °F 7.3 °F 8.6 °F 68% 30.74 in 10.0 mi South 8.1 mph - N/A   Clear
9:55 AM 19.4 °F 9.5 °F 8.6 °F 63% 30.73 in 10.0 mi South 8.1 mph - N/A   Clear
10:15 AM 19.4 °F 8.6 °F 8.6 °F 63% 30.72 in 10.0 mi South 9.2 mph - N/A   Clear
10:35 AM 21.2 °F 10.9 °F 8.6 °F 58% 30.70 in 10.0 mi SSE 9.2 mph - N/A   Clear
10:55 AM 21.2 °F 10.9 °F 8.6 °F 58% 30.69 in 10.0 mi South 9.2 mph - N/A   Clear
11:15 AM 23.0 °F 13.1 °F 8.6 °F 54% 30.67 in 10.0 mi SSE 9.2 mph - N/A   Clear
11:35 AM 24.8 °F 14.6 °F 6.8 °F 46% 30.65 in 10.0 mi SSW 10.4 mph - N/A   Clear
11:55 AM 24.8 °F 15.3 °F 6.8 °F 46% 30.64 in 10.0 mi SSW 9.2 mph - N/A   Clear
12:15 PM 26.6 °F 16.8 °F 6.8 °F 43% 30.62 in 10.0 mi SSW 10.4 mph - N/A   Clear
12:35 PM 26.6 °F 15.7 °F 5.0 °F 40% 30.60 in 10.0 mi SSW 12.7 mph - N/A   Clear
12:55 PM 28.4 °F 18.5 °F 5.0 °F 37% 30.59 in 10.0 mi SSW 11.5 mph - N/A   Clear
1:15 PM 28.4 °F 17.0 °F 5.0 °F 37% 30.58 in 10.0 mi SSW 15.0 mph - N/A   Clear
1:35 PM 28.4 °F 17.0 °F 5.0 °F 37% 30.57 in 10.0 mi SSW 15.0 mph - N/A   Clear
1:55 PM 28.4 °F 16.6 °F 5.0 °F 37% 30.55 in 10.0 mi South 16.1 mph - N/A   Clear
2:15 PM 30.2 °F 18.9 °F 6.8 °F 37% 30.54 in 10.0 mi SSW 16.1 mph - N/A   Clear
2:35 PM 30.2 °F 20.2 °F 5.0 °F 34% 30.53 in 10.0 mi SSW 12.7 mph - N/A   Clear
2:55 PM 30.2 °F 21.3 °F 5.0 °F 34% 30.52 in 10.0 mi SSW 10.4 mph 17.3 mph N/A   Clear
3:15 PM 30.2 °F 19.3 °F 5.0 °F 34% 30.52 in 10.0 mi SSW 15.0 mph - N/A   Clear
3:35 PM 30.2 °F 19.8 °F 6.8 °F 37% 30.51 in 10.0 mi SSW 13.8 mph - N/A   Clear
3:55 PM 30.2 °F 20.2 °F 5.0 °F 34% 30.51 in 10.0 mi SSW 12.7 mph - N/A   Clear
4:15 PM 28.4 °F 18.5 °F 6.8 °F 40% 30.50 in 10.0 mi South 11.5 mph - N/A   Clear
4:35 PM 28.4 °F 19.1 °F 6.8 °F 40% 30.50 in 10.0 mi South 10.4 mph - N/A   Clear
4:55 PM 26.6 °F 16.8 °F 6.8 °F 43% 30.49 in 10.0 mi South 10.4 mph - N/A   Clear
5:15 PM 26.6 °F 17.5 °F 6.8 °F 43% 30.49 in 10.0 mi South 9.2 mph - N/A   Clear
5:35 PM 24.8 °F 14.6 °F 6.8 °F 46% 30.48 in 10.0 mi South 10.4 mph - N/A   Clear
5:55 PM 24.8 °F 15.3 °F 8.6 °F 50% 30.48 in 10.0 mi South 9.2 mph - N/A   Clear
6:15 PM 24.8 °F 15.3 °F 8.6 °F 50% 30.47 in 10.0 mi South 9.2 mph - N/A   Clear
6:35 PM 23.0 °F 12.4 °F 8.6 °F 54% 30.46 in 10.0 mi South 10.4 mph - N/A   Clear
6:55 PM 23.0 °F 13.1 °F 8.6 °F 54% 30.45 in 10.0 mi South 9.2 mph - N/A   Clear
7:15 PM 23.0 °F 13.9 °F 10.4 °F 59% 30.45 in 10.0 mi South 8.1 mph - N/A   Clear
7:35 PM 23.0 °F 13.1 °F 8.6 °F 54% 30.44 in 10.0 mi South 9.2 mph - N/A   Clear
7:55 PM 23.0 °F 13.1 °F 10.4 °F 59% 30.44 in 10.0 mi South 9.2 mph - N/A   Clear
8:15 PM 23.0 °F 13.1 °F 10.4 °F 59% 30.43 in 10.0 mi South 9.2 mph - N/A   Clear
8:35 PM 23.0 °F 12.4 °F 10.4 °F 59% 30.42 in 10.0 mi South 10.4 mph - N/A   Clear
8:55 PM 23.0 °F 11.1 °F 10.4 °F 59% 30.41 in 10.0 mi South 12.7 mph - N/A   Clear
9:15 PM 23.0 °F 12.4 °F 10.4 °F 59% 30.41 in 10.0 mi South 10.4 mph - N/A   Clear
9:35 PM 23.0 °F 12.4 °F 10.4 °F 59% 30.40 in 10.0 mi South 10.4 mph - N/A   Clear
9:55 PM 23.0 °F 12.4 °F 10.4 °F 59% 30.39 in 10.0 mi South 10.4 mph - N/A   Clear
10:15 PM 21.2 °F 10.9 °F 12.2 °F 68% 30.39 in 10.0 mi South 9.2 mph - N/A   Clear
10:35 PM 21.2 °F 10.1 °F 12.2 °F 68% 30.38 in 10.0 mi South 10.4 mph - N/A   Clear
10:55 PM 23.0 °F 13.1 °F 12.2 °F 63% 30.36 in 10.0 mi South 9.2 mph - N/A   Clear
11:15 PM 23.0 °F 13.1 °F 12.2 °F 63% 30.35 in 10.0 mi South 9.2 mph - N/A   Clear
11:35 PM 23.0 °F 13.1 °F 12.2 °F 63% 30.35 in 10.0 mi South 9.2 mph - N/A   Clear
11:55 PM 23.0 °F 13.9 °F 12.2 °F 63% 30.35 in 10.0 mi South 8.1 mph - N/A   Partly Cloudy